Weather History for Dutch Harbor, AK

Change the Weather History Date:

Monday, March 4, 2013

  Actual Average Record
Temperature  
Mean Temperature 38 °F -  
Max Temperature 41 °F 38 °F 53 °F (2009)
Min Temperature 35 °F 26 °F 18 °F (1993)
Degree Days  
Heating Degree Days 27    
Moisture  
Dew Point 31 °F    
Average Humidity 77    
Maximum Humidity 86    
Minimum Humidity 62    
Precipitation  
Precipitation 0.32 in - - ()
Sea Level Pressure  
Sea Level Pressure 29.68 in    
Wind  
Wind Speed 13 mph (SSE)    
Max Wind Speed 24 mph    
Max Gust Speed 29 mph    
Visibility 10 miles    
Events Rain    
Averages and records for this station are not official NWS values.
T = Trace of Precipitation, MM = Missing Value Source: NWS Daily Summary

Daily Weather History Graph

Daily Weather History Graph

Search for Another Location

Airport:

Trip Planner

Search our weather history database for the weather conditions in past years. The results will help you decide how hot, cold, wet, or windy it might be!

Date:

Astronomy

Mar. 04, 2013 Rise Set
Actual Time 8:46 AM AKST 7:50 PM AKST
Civil Twilight 8:10 AM AKST 8:25 PM AKST
Nautical Twilight 7:30 AM AKST 9:06 PM AKST
Astronomical Twilight 6:48 AM AKST 9:48 PM AKST
Moon 3:48 AM AKST (3/4) 12:03 PM AKST (3/4)
Length of Visible Light 12h 14m
Length of Day
11h 04m
Waning Gibbous, 50% of the Moon is Illuminated
Mar 4
Waning Gibbous
Mar 4
Last Quarter
Mar 11
New
Mar 19
First Quarter
Mar 27
Full

Hourly Weather History & Observations

Time (AKST) Temp. Windchill Dew Point Humidity Pressure Visibility Wind Dir Wind Speed Gust Speed Precip Events Conditions
12:56 AM 37.0 °F 28.1 °F 28.0 °F 70% 29.86 in 10.0 mi South 15.0 mph - N/A   Overcast
1:56 AM 37.0 °F 31.0 °F 25.0 °F 62% 29.85 in 10.0 mi SSE 8.1 mph - N/A   Overcast
2:56 AM 36.0 °F 26.3 °F 27.0 °F 70% 29.84 in 10.0 mi SSE 16.1 mph 21.9 mph N/A   Overcast
3:56 AM 36.0 °F 26.3 °F 28.9 °F 76% 29.82 in 10.0 mi SE 16.1 mph 25.3 mph N/A   Overcast
4:35 AM 35.6 °F 27.1 °F 30.2 °F 81% 29.78 in 10.0 mi SSE 12.7 mph - N/A   Overcast
4:56 AM 36.0 °F 27.1 °F 30.0 °F 79% 29.78 in 10.0 mi SSE 13.8 mph 20.7 mph 0.00 in   Overcast
5:56 AM 36.0 °F 27.1 °F 32.0 °F 86% 29.75 in 10.0 mi SSE 13.8 mph 23.0 mph 0.00 in Rain Light Rain
6:56 AM 37.0 °F 27.0 °F 32.0 °F 82% 29.72 in 10.0 mi SSE 18.4 mph 27.6 mph 0.00 in Rain Light Rain
7:56 AM 37.0 °F 27.7 °F 32.0 °F 82% 29.68 in 10.0 mi SE 16.1 mph 23.0 mph 0.01 in Rain Light Rain
8:46 AM 37.4 °F 27.8 °F 32.0 °F 81% 29.65 in 6.0 mi SE 17.3 mph 24.2 mph 0.04 in Rain Light Rain
8:56 AM 37.0 °F 26.7 °F 32.0 °F 82% 29.67 in 6.0 mi SE 19.6 mph 27.6 mph 0.05 in Rain Light Rain
9:56 AM 37.9 °F 28.5 °F 33.1 °F 83% 29.64 in 9.0 mi SE 17.3 mph 27.6 mph 0.07 in Rain Light Rain
10:56 AM 37.9 °F 26.8 °F 33.1 °F 83% 29.62 in 7.0 mi SE 24.2 mph 28.8 mph 0.07 in Rain Light Rain
11:56 AM 37.9 °F 28.5 °F 33.1 °F 83% 29.62 in 9.0 mi SSE 17.3 mph 25.3 mph 0.07 in Rain Light Rain
12:56 PM 39.9 °F 31.1 °F 34.0 °F 79% 29.60 in 10.0 mi SSE 17.3 mph 26.5 mph 0.03 in Rain Light Rain
1:56 PM 41.0 °F 33.1 °F 35.1 °F 79% 29.59 in 10.0 mi SSE 15.0 mph 26.5 mph 0.02 in Rain Light Rain
2:56 PM 41.0 °F 34.3 °F 35.1 °F 79% 29.57 in 10.0 mi SSE 11.5 mph - 0.00 in   Mostly Cloudy
3:15 PM 41.0 °F 36.4 °F 35.6 °F 81% 29.56 in 10.0 mi South 6.9 mph - N/A   Mostly Cloudy
3:56 PM 41.0 °F 37.1 °F 35.1 °F 79% 29.58 in 10.0 mi SW 5.8 mph - 0.00 in Rain Light Rain
4:56 PM 39.9 °F 36.7 °F 33.1 °F 77% 29.60 in 10.0 mi Variable 4.6 mph - 0.00 in   Mostly Cloudy
5:56 PM 39.9 °F - 32.0 °F 73% 29.61 in 10.0 mi Calm Calm - N/A   Overcast
6:25 PM 39.2 °F 35.9 °F 30.2 °F 70% 29.60 in 10.0 mi SW 4.6 mph - N/A   Overcast
6:56 PM 39.0 °F 32.3 °F 30.9 °F 73% 29.63 in 10.0 mi SSW 10.4 mph - N/A   Overcast
7:56 PM 39.0 °F 34.8 °F 30.0 °F 70% 29.65 in 10.0 mi SSW 5.8 mph - 0.00 in   Mostly Cloudy
8:56 PM 37.9 °F - 28.9 °F 70% 29.68 in 10.0 mi Calm Calm - N/A   Mostly Cloudy
10:56 PM 37.0 °F 33.3 °F 28.0 °F 70% 29.70 in 10.0 mi South 4.6 mph - N/A   Clear
11:56 PM 37.0 °F 32.4 °F 28.0 °F 70% 29.70 in 10.0 mi South 5.8 mph - N/A   Clear